Home   Weather   Coral Harbour   Past weeks

Flag for Canada Past Weather in Coral Harbour, Nunavut, Canada — Yesterday and Last 2 Weeks

Now
0 °F

Overcast.


Feels Like: -21 °F
Forecast: N/A
Wind: 16 mph from Northeast

Location: Coral Harbour

Current Time: Jan 19, 2017 at 4:38:53 pm

Latest Report: Jan 19, 2017 at 4:00 pm


Visibility: 15 mi

Pressure: 29.98 "Hg

Humidity: 78%

Dew Point: -6 °F

Location of Coral HarbourLocation

Past Weather in Coral Harbour — Graph

°F

Coral Harbour Temperature Yesterday

Maximum temperature yesterday: 12 °F (at 12:21 am)
Minimum temperature yesterday: -20 °F (at 10:00 pm)
Average temperature yesterday: -7 °F

High & Low Weather Summary for the Past Weeks

 TemperatureHumidityPressure
High14 °F (Jan 17, 5:00 pm)92% (Jan 17, 11:24 am)30.03 "Hg (Jan 17, 11:24 am)
Low-47 °F (Jan 9, 6:00 am)63% (Jan 9, 6:00 am)29.05 "Hg (Jan 17, 9:00 pm)
Average-18 °F75%29.71 "Hg
* Reported Jan 4 3:00 pm — Jan 19 3:00 pm, Coral Harbour, Weather by CustomWeather, © 2017

Note: Actual official high and low records may vary slightly from our data, if they occured in-between our weather recording intervals... More about our weather records

Advertising

Coral Harbour Weather History for the Previous 24 Hours

Scroll right to see more
 ConditionsComfort  
Time TempWeatherWind HumidityBarometerVisibility
3:00 pm
Thu, Jan 19
0 °FPartly sunny.14 mph78%29.96 "Hg15 mi
2:00 pm0 °FPartly sunny.15 mph78%29.94 "Hg15 mi
1:00 pm0 °FOvercast.12 mph78%29.95 "Hg15 mi
12:00 pm0 °FPartly sunny.8 mph78%29.94 "Hg15 mi
11:00 am-2 °FOvercast.7 mph77%29.94 "Hg15 mi
10:00 am-2 °FOvercast.6 mph77%29.92 "Hg15 mi
9:00 am-2 °FPassing clouds.2 mph77%29.92 "Hg15 mi
8:00 am-4 °FPassing clouds.2 mph77%29.91 "Hg15 mi
7:00 am-4 °FPassing clouds.No wind77%29.90 "Hg15 mi
6:00 am-6 °FPartly cloudy.3 mph77%29.89 "Hg15 mi
5:00 am-6 °FPartly cloudy.5 mph77%29.87 "Hg15 mi
4:00 am-4 °FPassing clouds.3 mph77%29.86 "Hg15 mi
3:00 am-4 °FPassing clouds.6 mph77%29.84 "Hg15 mi
2:00 am-6 °FPassing clouds.8 mph84%29.83 "Hg15 mi
1:00 am-8 °FPassing clouds.8 mph84%29.82 "Hg15 mi
12:00 am-9 °FPassing clouds.8 mph77%29.79 "Hg15 mi
11:00 pm
Wed, Jan 18
-17 °FPassing clouds.12 mph76%29.78 "Hg15 mi
10:00 pm-20 °FPassing clouds.15 mph75%29.76 "Hg15 mi
9:00 pm-18 °FClear.20 mph75%29.75 "Hg15 mi
8:00 pm-18 °FClear.14 mph75%29.75 "Hg15 mi
7:00 pm-17 °FClear.15 mph76%29.73 "Hg15 mi
6:00 pm-13 °FPassing clouds.15 mph76%29.68 "Hg15 mi
5:00 pm-13 °FPassing clouds.18 mph76%29.65 "Hg15 mi
4:00 pm-15 °FPartly sunny.15 mph76%29.62 "Hg15 mi
Weather by CustomWeather, © 2017

See weather overviewHow to use our weather pages